SCP
0 0 0 0 0 0 0 0 0 0 0 0 0 0 0 0 0 0 0 0 0 -0 -0 -0 0 0 0 0 -0 0 0 0 0 0 0 0 0 -0 0 0 -0 0 -0 0 0 0 0
0 0 0 0 0 0 0 0 0 0 0 0 0 0 0 0 0 0 0 0 -0 -0 -0 -0 -0 0 0 0 0 -0 0 0 0 -0 -0 -0 -0 -0 0 -0 -0 0 -0 0 0 0 0
-0 0 0 0 0 0 0 -0 -0 -0 0 0 0 0 0 0 0 0 0 0 0 -0 -0 -0 0 0 0 -0 0 0 0 0 0 0 0 -0 -0 0 0 -0 -0 -0 -0 0 0 0 0
-0 -0 -0 -0 -0 -0 -0 -0 -0 -0 -0 0 0 0 0 0 0 0 0 0 0 -0 -0 -0 0 0 0 0 0 0 0 0 0 -0 -0 0 0 0 -0 -0 -0 -0 -0 -0 0 0 0
-0 -0 -0 -0 -0 -0 -0 -0 -0 -0 -0 -0 0 0 0 0 0 0 0 0 -0 -0 -0 -0 0 0 0 0 0 0 -0 0 0 0 0 0 0 -0 -0 -0 -0 0 0 0 0 0 0
-0 -0 -0 -0 -0 -0 -0 -0 -0 -0 -0 -0 0 0 0 -0 -0 -0 -0 -0 0 0 0 0 -0 0 -0 -0 0 0 0 -0 0 0 0 0 0 0 -0 -0 0 0 0 0 0 0 0
-0 -0 -0 -0 -0 -0 -0 -0 0 -0 0 0 0 0 -0 -0 -0 -0 0 -0 0 0 0 0 0 0 0 -0 0 0 0 -0 0 0 0 0 0 0 -0 0 0 0 -0 -0 0 0 0
-0 -0 -0 -0 -0 0 0 0 0 0 0 0 0 -0 -0 -0 -0 -0 -0 0 0 0 0 -0 0 0 -0 0 0 0 0 0 0 0 -0 -0 0 -0 -0 -0 0 -0 -0 0 0 0 0
-0 -0 -0 -0 -0 -0 -0 -0 0 0 0 0 0 -0 -0 -0 -0 -0 -0 -0 0 0 0 -0 0 -0 0 0 -0 0 0 0 0 0 -0 0 -0 -0 -0 -0 -0 0 0 0 0 0 0
-0 -0 -0 -0 -0 -0 -0 -0 -0 -0 -0 -0 -0 -0 -0 0 0 0 0 0 -0 0 0 -0 0 0 0 0 0 -0 0 -0 -0 -0 -0 -0 0 -0 0 -0 0 0 0 0 0 0 0
-0 -0 -0 -0 -0 -0 -0 -0 -0 -0 -0 0 -0 -0 -0 -0 0 -0 0 0 0 -0 0 0 0 0 0 0 -0 -0 0 0 -0 -0 -0 -0 -0 0 -0 0 0 -0 0 -0 0 0 0
-0 -0 -0 -0 -0 -0 -0 -0 -0 0 0 0 -0 -0 0 -0 0 0 0 0 -0 0 -0 0 0 0 0 0 -0 0 0 0 -0 -0 -0 0 -0 0 0 0 -0 0 0 -0 0 0 0
-0 -0 -0 -0 -0 -0 -0 -0 -0 -0 0 0 -0 -0 0 -0 0 0 0 -0 0 0 0 0 0 0 0 0 -0 0 0 0 0 0 0 -0 0 -0 0 0 -0 0 0 0 0 0 0
-0 -0 -0 -0 -0 -0 -0 -0 -0 -0 -0 0 -0 0 0 -0 0 0 0 0 0 0 0 0 0 0 0 0 0 -0 0 0 0 -0 -0 0 0 0 0 0 0 0 0 0 0 0 0
-0 -0 -0 -0 -0 -0 -0 -0 -0 -0 0 -0 0 0 0 -0 0 -0 0 0 0 0 0 0 0 0 -0 -0 -0 0 0 0 0 0 0 0 0 0 0 0 0 -0 -0 0 0 0 0
-0 -0 -0 -0 -0 -0 -0 -0 -0 0 -0 -0 -0 0 0 0 0 -0 0 -0 -0 0 0 0 0 0 -0 0 0 0 0 0 0 0 0 0 0 0 0 0 0 0 0 0 0 0 0
-0 -0 -0 -0 -0 -0 -0 -0 -0 0 -0 -0 -0 -0 0 0 0 0 0 -0 0 0 0 0 0 0 0 0 0 0 0 0 0 0 0 0 0 0 0 0 0 0 0 0 0 0 0
-0 -0 -0 -0 -0 -0 -0 -0 -0 0 -0 -0 -0 0 0 0 0 0 -0 0 0 0 0 0 0 0 0 0 0 0 0 0 0 0 0 0 0 0 0 0 0 0 0 0 0 0 0
-0 -0 -0 -0 -0 -0 -0 -0 -0 0 -0 -0 -0 0 0 0 -0 -0 -0 0 0 0 0 0 0 0 0 0 0 0 0 0 0 0 0 0 0 0 0 0 0 0 0 0 0 0 0
-0 -0 -0 -0 -0 -0 -0 -0 -0 0 -0 -0 -0 0 0 0 0 0 0 0 0 0 0 0 0 0 0 0 0 0 0 0 0 0 0 0 0 0 0 0 0 0 0 0 0 0 0
-0 -0 -0 -0 -0 -0 -0 -0 -0 -0 -0 0 -0 0 0 0 0 0 0 0 0 0 0 0 0 0 0 0 0 0 0 0 0 -0 -0 0 0 0 0 0 0 0 0 0 0 0 0
-0 -0 -0 -0 -0 -0 -0 -0 -0 -0 -0 0 0 0 0 0 0 0 0 0 0 0 0 0 0 0 0 0 0 0 0 0 0 0 0 0 0 0 0 0 0 0 0 0 0 0 0
-0 -0 -0 -0 -0 -0 -0 -0 -0 -0 -0 0 0 0 -0 0 0 0 0 0 0 0 0 0 0 0 0 0 0 0 0 0 0 0 0 0 0 0 0 0 0 0 0 0 0 0 0
-0 -0 -0 -0 -0 -0 -0 -0 -0 -0 -0 0 0 0 0 0 0 0 0 0 0 0 0 0 0 0 0 0 0 0 0 -0 0 0 0 0 0 0 0 0 0 0 0 0 0 0 0
-0 -0 -0 -0 -0 -0 -0 -0 -0 -0 -0 0 0 0 0 0 0 0 0 0 0 0 -0 0 0 0 0 0 0 -0 -0 -0 0 0 0 0 0 0 0 0 0 0 0 0 0 0 0
-0 -0 -0 -0 -0 -0 -0 -0 0 0 0 0 0 0 0 0 0 0 0 0 0 0 0 0 0 0 -0 -0 -0 0 0 0 0 0 0 0 0 0 0 0 0 0 0 0 0 0 0
-0 -0 -0 -0 -0 -0 -0 0 0 -0 -0 0 -0 0 0 0 0 0 0 0 0 -0 -0 0 0 0 -0 -0 0 0 0 0 0 0 0 0 0 0 0 0 0 0 0 0 0 0 0
-0 -0 -0 -0 -0 -0 0 -0 0 0 0 0 0 0 -0 0 0 0 0 0 0 0 0 -0 0 0 0 0 0 0 0 0 0 0 0 0 0 0 0 0 0 -0 0 0 0 0 0
-0 -0 -0 -0 -0 0 0 0 0 0 0 0 0 -0 -0 0 0 0 0 0 0 -0 0 0 0 0 0 0 0 0 0 0 0 0 0 0 0 0 0 0 -0 -0 0 0 0 0 0
Wind_Speed_500mb
14 15 16 17 18 19 20 22 22 21 21 20 19 18 18 18 17 17 18 16 15 14 13 13 14 13 12 15 32 13 9 14 17 24 30 28 28 34 30 33 34 30 33 22 31 43 46
18 17 18 18 20 21 22 23 23 23 22 21 19 17 17 17 16 16 16 16 14 13 12 13 14 13 12 30 3 8 6 14 19 25 28 34 32 30 31 34 27 33 37 41 44 43 45
19 19 20 20 22 22 23 23 24 24 22 21 18 16 17 16 14 13 14 14 12 11 12 13 13 13 20 35 6 12 16 12 22 25 28 30 32 28 25 25 32 22 30 32 35 44 33
21 22 22 23 24 24 24 25 25 23 21 20 18 16 15 14 12 12 11 11 10 11 11 10 10 12 21 13 30 21 20 18 17 22 25 21 27 29 34 32 23 32 34 30 36 38 31
24 24 25 26 26 27 26 27 26 25 22 18 16 15 14 12 10 10 8 8 8 9 9 9 8 11 28 19 27 26 28 22 20 19 20 19 22 33 36 32 23 21 27 35 34 43 36
25 26 28 29 29 30 30 28 27 25 22 17 14 12 12 10 9 7 6 6 8 10 9 12 18 17 38 28 22 32 30 27 21 22 23 22 21 25 31 28 28 34 37 40 43 39 42
27 28 29 30 31 32 31 30 28 26 23 17 14 11 10 8 8 7 11 4 6 10 27 27 26 25 7 12 22 33 32 26 24 28 26 33 22 28 40 39 37 37 38 43 21 30 30
30 30 30 31 31 31 31 31 30 27 23 18 12 9 7 8 9 12 16 10 22 22 32 47 46 39 26 14 22 29 35 33 35 29 33 28 32 36 38 38 38 43 40 17 31 22 10
32 32 32 32 32 32 31 31 31 29 24 18 11 7 7 9 11 16 17 22 21 23 20 41 55 48 37 29 34 37 42 42 29 32 36 35 38 39 38 39 38 35 37 25 36 26 18
35 36 36 36 34 33 32 31 30 29 26 19 12 6 10 9 5 11 21 13 15 21 12 23 29 34 39 33 37 38 45 42 33 38 35 35 45 36 28 39 23 29 28 34 25 32 19
40 42 42 40 37 34 32 31 30 29 26 19 11 8 15 24 5 6 4 11 16 11 11 18 25 13 30 43 10 37 48 41 40 36 33 37 40 32 40 30 30 38 35 40 39 30 22
46 49 49 47 41 35 33 30 30 29 27 18 10 10 19 22 12 7 9 16 13 12 18 18 20 17 26 35 45 24 32 37 44 41 42 37 48 31 36 31 37 37 33 40 28 28 29
51 54 54 51 45 37 32 29 28 27 25 17 9 11 22 23 11 6 14 15 14 15 8 6 3 20 24 29 37 19 24 31 28 29 34 40 41 39 26 32 38 16 27 21 27 27 31
55 58 56 52 44 38 37 32 28 24 22 13 5 8 19 30 14 10 12 16 21 30 16 17 10 21 18 28 32 37 27 32 38 41 34 31 30 47 39 38 33 33 32 29 36 30 33
58 60 57 51 41 42 43 37 28 22 18 5 2 1 13 13 19 10 17 17 24 17 23 19 25 28 30 30 35 37 38 33 38 42 38 33 39 33 32 30 29 37 34 33 41 45 34
60 62 60 49 42 46 47 37 26 18 13 2 4 10 7 11 13 11 16 28 38 9 16 20 22 39 36 9 27 37 27 15 34 35 27 30 32 10 23 7 17 23 26 30 21 36 42
62 66 62 53 45 45 52 41 24 14 8 1 7 13 5 11 11 16 17 29 11 19 15 16 25 34 37 35 6 7 27 27 46 41 34 15 20 29 17 16 28 26 31 33 33 22 14
60 67 67 59 53 49 50 46 26 14 6 3 12 2 4 15 16 22 22 5 10 19 19 13 15 25 24 31 33 33 16 13 34 33 22 32 17 23 37 10 25 33 32 24 15 29 28
59 67 70 68 61 58 49 47 28 19 7 9 14 13 4 11 11 16 26 8 3 14 19 15 21 24 19 27 22 19 12 15 10 16 12 13 19 20 32 36 8 13 19 37 41 23 30
57 64 69 71 68 64 51 45 30 26 10 14 16 4 14 14 26 16 22 23 7 6 11 10 26 22 24 22 28 29 23 12 11 15 4 4 14 22 25 2 12 26 22 28 30 17 32
55 61 64 68 71 68 63 43 32 27 18 20 10 10 9 14 22 20 17 23 25 21 24 29 19 11 15 21 28 28 32 24 2 18 1 2 15 26 34 42 32 28 34 31 24 28 39
51 57 63 67 68 70 67 65 36 32 21 23 23 20 20 17 17 21 10 21 21 28 18 24 17 28 26 26 6 23 22 23 18 15 11 3 15 28 33 37 21 21 30 29 25 31 6
44 49 58 64 70 68 67 64 60 51 46 34 30 26 24 14 24 18 21 21 23 20 20 11 16 24 26 23 24 26 29 33 25 24 26 26 14 16 28 26 19 18 13 11 17 26 23
36 42 50 58 63 68 66 62 57 58 52 34 36 32 23 14 16 16 24 26 31 12 19 21 18 17 28 30 30 31 32 35 31 24 17 19 25 16 19 19 23 8 16 23 29 21 28
32 34 42 48 55 62 65 63 55 51 51 46 40 39 21 11 31 32 30 25 36 35 20 7 10 13 20 28 21 17 21 20 11 22 23 14 17 20 19 21 11 6 4 10 8 18 21
31 29 34 41 46 51 57 59 53 51 53 44 41 36 31 24 26 33 31 33 23 25 15 17 23 17 14 24 20 13 15 17 3 6 23 28 14 11 25 16 7 8 20 31 26 14 24
30 28 28 33 41 43 47 50 48 42 39 37 32 42 25 29 32 36 29 23 27 32 20 34 36 24 22 21 13 15 4 11 10 8 2 4 7 11 17 8 12 23 42 32 14 8 22
29 28 25 27 31 38 41 44 42 35 34 30 33 31 24 25 22 23 26 28 28 31 19 42 18 22 15 16 9 7 11 11 10 19 17 15 13 8 5 6 3 17 15 11 6 23 21
28 29 27 27 28 32 36 37 36 33 30 33 31 24 16 4 7 16 21 19 21 21 23 24 20 20 17 14 16 12 12 11 17 6 19 9 15 7 8 3 2 10 18 15 12 15 17
Wind_Direction_500mb
20 15 8 359 350 345 338 334 323 318 309 299 294 295 293 286 280 278 278 274 271 261 256 249 245 248 257 254 264 256 231 221 211 208 212 222 229 237 228 238 220 216 244 132 100 92 113
24 17 11 4 355 351 345 339 330 321 312 305 300 295 290 283 279 279 279 275 266 252 248 242 242 243 247 256 235 275 206 225 213 202 213 223 229 232 250 249 224 218 233 129 125 122 112
27 18 13 5 1 353 349 345 338 327 317 311 304 295 291 286 277 274 274 265 254 243 243 238 237 241 260 241 229 228 205 214 197 211 221 227 233 252 249 264 250 226 215 132 147 131 121
26 20 14 8 4 356 352 347 345 335 323 314 306 298 293 286 282 278 263 249 234 232 237 239 237 244 260 266 239 222 199 203 209 207 237 239 238 261 247 263 228 224 212 219 148 152 156
23 18 14 9 4 359 355 349 349 340 330 320 309 302 295 285 282 273 248 235 226 227 230 219 214 247 259 224 225 212 205 209 206 218 223 246 233 235 239 251 228 206 212 217 209 171 180
22 17 12 7 3 1 358 351 349 345 336 325 312 303 292 283 276 248 214 201 225 215 231 230 225 259 246 234 217 206 207 214 207 216 217 224 222 230 243 225 219 213 225 216 215 187 188
20 16 11 7 2 360 357 354 351 347 339 331 315 299 285 279 264 225 192 207 258 243 214 223 193 218 136 203 177 200 201 210 203 209 219 204 215 215 229 230 239 239 213 225 107 157 197
17 12 7 4 360 357 353 352 350 347 343 333 315 289 268 253 233 212 207 234 341 319 300 244 246 236 256 198 204 210 196 203 212 219 217 234 226 236 230 239 232 252 265 37 106 135 228
15 9 4 359 355 351 349 348 347 345 343 333 315 279 228 229 224 222 232 266 310 315 287 271 222 230 229 221 237 207 200 208 219 226 230 227 234 215 242 247 245 234 249 224 167 164 241
13 5 359 354 351 349 345 344 343 341 341 331 311 252 203 182 213 255 252 315 290 310 279 242 193 224 221 213 233 228 201 213 230 237 230 249 243 269 247 240 259 244 252 256 236 162 208
15 9 3 354 348 344 344 341 340 337 336 327 298 238 197 188 218 218 319 299 301 297 284 125 158 242 209 199 204 207 201 211 239 232 242 251 247 244 250 247 236 252 237 245 234 185 233
16 11 6 1 353 345 343 341 338 336 334 326 292 224 198 210 268 234 311 297 304 240 255 156 140 203 223 214 232 203 206 215 235 248 258 254 267 263 239 224 251 252 234 255 219 220 218
12 7 3 1 358 353 346 342 337 335 333 324 284 221 202 186 227 307 282 278 243 247 69 284 118 183 223 211 235 200 198 225 231 235 246 258 241 252 238 263 238 236 257 244 236 225 236
10 6 3 2 2 3 356 347 339 336 335 326 274 227 209 206 222 300 291 250 259 284 301 36 356 310 259 228 222 241 219 232 223 250 267 246 233 218 218 225 254 209 224 246 249 229 241
11 8 7 7 12 7 358 350 343 341 341 355 58 206 237 221 243 278 271 244 245 327 3 360 326 282 258 248 249 221 226 243 246 218 238 265 266 354 245 200 212 249 261 241 259 274 275
16 14 12 14 14 7 1 356 350 348 350 89 135 224 146 195 208 241 253 263 294 60 7 326 305 299 301 314 343 294 252 286 238 271 232 236 269 272 289 302 267 264 273 274 247 266 264
22 22 20 17 9 3 6 6 5 12 22 72 194 221 175 162 186 234 252 274 330 68 26 336 312 316 319 322 290 278 313 354 340 346 348 298 270 272 202 228 251 243 233 248 269 260 258
27 27 25 20 14 6 8 11 20 28 52 37 280 290 119 169 221 238 250 357 344 338 337 316 299 287 299 317 318 317 96 190 312 319 325 350 301 265 265 220 316 302 308 298 295 263 265
27 26 26 26 24 20 16 17 23 15 350 305 268 95 164 193 264 302 348 285 51 322 344 331 312 317 335 307 302 304 116 144 61 17 31 10 297 272 268 279 256 260 288 336 320 265 269
25 26 26 27 28 29 25 23 25 20 17 340 291 175 145 201 267 321 326 319 359 127 315 317 313 306 305 301 299 285 274 127 111 91 95 239 277 286 273 0 353 319 307 326 314 306 290
27 28 28 29 29 30 34 30 33 30 31 359 317 50 358 5 12 335 1 342 325 336 12 316 309 354 337 317 310 302 358 343 128 118 99 19 270 276 282 291 296 294 291 299 263 275 297
30 33 32 31 30 32 33 35 40 35 44 35 20 359 344 63 337 315 24 20 344 341 345 324 340 333 318 300 337 319 347 334 326 325 350 330 298 312 287 291 238 265 257 284 271 276 161
34 34 34 35 34 34 36 37 40 50 46 39 18 357 302 55 349 4 25 342 329 339 308 316 337 326 305 5 339 310 299 295 282 288 291 298 282 321 287 296 309 263 303 303 12 35 336
34 32 32 34 35 36 37 38 44 47 44 31 12 355 332 47 49 18 354 343 330 326 303 331 0 335 347 323 308 283 260 261 254 256 253 286 279 244 264 274 255 61 48 66 79 59 78
30 29 28 30 31 33 35 38 42 50 45 32 24 13 353 48 18 2 331 5 323 325 239 298 342 349 319 306 283 257 252 226 23 339 352 294 268 275 263 264 223 113 113 145 171 82 88
26 25 24 25 24 26 28 32 37 46 47 35 30 33 34 13 21 353 355 1 341 346 325 355 334 347 312 301 294 334 326 333 196 356 356 330 332 339 298 256 262 41 9 359 123 114 122
21 21 19 20 22 23 23 24 29 40 42 37 25 41 48 64 32 23 13 356 346 338 310 16 354 356 327 310 340 313 341 316 313 321 287 247 356 52 334 316 61 344 335 316 240 129 106
12 10 8 7 13 17 16 15 17 34 40 34 21 31 21 81 52 27 18 7 3 1 339 351 345 356 340 348 348 339 351 357 353 34 355 21 2 37 1 63 99 332 3 33 88 92 108
4 3 358 354 353 357 2 10 14 23 36 37 16 3 343 75 63 49 33 19 12 5 347 330 352 4 358 342 346 342 356 4 12 48 12 43 35 53 69 126 186 67 95 114 99 108 104
Wind_Speed_850mb
14 15 16 17 18 19 20 22 22 21 21 20 19 18 18 18 17 17 18 16 15 14 13 13 14 13 12 15 32 13 9 14 17 24 30 28 28 34 30 33 34 30 33 22 31 43 46
18 17 18 18 20 21 22 23 23 23 22 21 19 17 17 17 16 16 16 16 14 13 12 13 14 13 12 30 3 8 6 14 19 25 28 34 32 30 31 34 27 33 37 41 44 43 45
19 19 20 20 22 22 23 23 24 24 22 21 18 16 17 16 14 13 14 14 12 11 12 13 13 13 20 35 6 12 16 12 22 25 28 30 32 28 25 25 32 22 30 32 35 44 33
21 22 22 23 24 24 24 25 25 23 21 20 18 16 15 14 12 12 11 11 10 11 11 10 10 12 21 13 30 21 20 18 17 22 25 21 27 29 34 32 23 32 34 30 36 38 31
24 24 25 26 26 27 26 27 26 25 22 18 16 15 14 12 10 10 8 8 8 9 9 9 8 11 28 19 27 26 28 22 20 19 20 19 22 33 36 32 23 21 27 35 34 43 36
25 26 28 29 29 30 30 28 27 25 22 17 14 12 12 10 9 7 6 6 8 10 9 12 18 17 38 28 22 32 30 27 21 22 23 22 21 25 31 28 28 34 37 40 43 39 42
27 28 29 30 31 32 31 30 28 26 23 17 14 11 10 8 8 7 11 4 6 10 27 27 26 25 7 12 22 33 32 26 24 28 26 33 22 28 40 39 37 37 38 43 21 30 30
30 30 30 31 31 31 31 31 30 27 23 18 12 9 7 8 9 12 16 10 22 22 32 47 46 39 26 14 22 29 35 33 35 29 33 28 32 36 38 38 38 43 40 17 31 22 10
32 32 32 32 32 32 31 31 31 29 24 18 11 7 7 9 11 16 17 22 21 23 20 41 55 48 37 29 34 37 42 42 29 32 36 35 38 39 38 39 38 35 37 25 36 26 18
35 36 36 36 34 33 32 31 30 29 26 19 12 6 10 9 5 11 21 13 15 21 12 23 29 34 39 33 37 38 45 42 33 38 35 35 45 36 28 39 23 29 28 34 25 32 19
40 42 42 40 37 34 32 31 30 29 26 19 11 8 15 24 5 6 4 11 16 11 11 18 25 13 30 43 10 37 48 41 40 36 33 37 40 32 40 30 30 38 35 40 39 30 22
46 49 49 47 41 35 33 30 30 29 27 18 10 10 19 22 12 7 9 16 13 12 18 18 20 17 26 35 45 24 32 37 44 41 42 37 48 31 36 31 37 37 33 40 28 28 29
51 54 54 51 45 37 32 29 28 27 25 17 9 11 22 23 11 6 14 15 14 15 8 6 3 20 24 29 37 19 24 31 28 29 34 40 41 39 26 32 38 16 27 21 27 27 31
55 58 56 52 44 38 37 32 28 24 22 13 5 8 19 30 14 10 12 16 21 30 16 17 10 21 18 28 32 37 27 32 38 41 34 31 30 47 39 38 33 33 32 29 36 30 33
58 60 57 51 41 42 43 37 28 22 18 5 2 1 13 13 19 10 17 17 24 17 23 19 25 28 30 30 35 37 38 33 38 42 38 33 39 33 32 30 29 37 34 33 41 45 34
60 62 60 49 42 46 47 37 26 18 13 2 4 10 7 11 13 11 16 28 38 9 16 20 22 39 36 9 27 37 27 15 34 35 27 30 32 10 23 7 17 23 26 30 21 36 42
62 66 62 53 45 45 52 41 24 14 8 1 7 13 5 11 11 16 17 29 11 19 15 16 25 34 37 35 6 7 27 27 46 41 34 15 20 29 17 16 28 26 31 33 33 22 14
60 67 67 59 53 49 50 46 26 14 6 3 12 2 4 15 16 22 22 5 10 19 19 13 15 25 24 31 33 33 16 13 34 33 22 32 17 23 37 10 25 33 32 24 15 29 28
59 67 70 68 61 58 49 47 28 19 7 9 14 13 4 11 11 16 26 8 3 14 19 15 21 24 19 27 22 19 12 15 10 16 12 13 19 20 32 36 8 13 19 37 41 23 30
57 64 69 71 68 64 51 45 30 26 10 14 16 4 14 14 26 16 22 23 7 6 11 10 26 22 24 22 28 29 23 12 11 15 4 4 14 22 25 2 12 26 22 28 30 17 32
55 61 64 68 71 68 63 43 32 27 18 20 10 10 9 14 22 20 17 23 25 21 24 29 19 11 15 21 28 28 32 24 2 18 1 2 15 26 34 42 32 28 34 31 24 28 39
51 57 63 67 68 70 67 65 36 32 21 23 23 20 20 17 17 21 10 21 21 28 18 24 17 28 26 26 6 23 22 23 18 15 11 3 15 28 33 37 21 21 30 29 25 31 6
44 49 58 64 70 68 67 64 60 51 46 34 30 26 24 14 24 18 21 21 23 20 20 11 16 24 26 23 24 26 29 33 25 24 26 26 14 16 28 26 19 18 13 11 17 26 23
36 42 50 58 63 68 66 62 57 58 52 34 36 32 23 14 16 16 24 26 31 12 19 21 18 17 28 30 30 31 32 35 31 24 17 19 25 16 19 19 23 8 16 23 29 21 28
32 34 42 48 55 62 65 63 55 51 51 46 40 39 21 11 31 32 30 25 36 35 20 7 10 13 20 28 21 17 21 20 11 22 23 14 17 20 19 21 11 6 4 10 8 18 21
31 29 34 41 46 51 57 59 53 51 53 44 41 36 31 24 26 33 31 33 23 25 15 17 23 17 14 24 20 13 15 17 3 6 23 28 14 11 25 16 7 8 20 31 26 14 24
30 28 28 33 41 43 47 50 48 42 39 37 32 42 25 29 32 36 29 23 27 32 20 34 36 24 22 21 13 15 4 11 10 8 2 4 7 11 17 8 12 23 42 32 14 8 22
29 28 25 27 31 38 41 44 42 35 34 30 33 31 24 25 22 23 26 28 28 31 19 42 18 22 15 16 9 7 11 11 10 19 17 15 13 8 5 6 3 17 15 11 6 23 21
28 29 27 27 28 32 36 37 36 33 30 33 31 24 16 4 7 16 21 19 21 21 23 24 20 20 17 14 16 12 12 11 17 6 19 9 15 7 8 3 2 10 18 15 12 15 17
Wind_Direction_850mb
20 15 8 359 350 345 338 334 323 318 309 299 294 295 293 286 280 278 278 274 271 261 256 249 245 248 257 254 264 256 231 221 211 208 212 222 229 237 228 238 220 216 244 132 100 92 113
24 17 11 4 355 351 345 339 330 321 312 305 300 295 290 283 279 279 279 275 266 252 248 242 242 243 247 256 235 275 206 225 213 202 213 223 229 232 250 249 224 218 233 129 125 122 112
27 18 13 5 1 353 349 345 338 327 317 311 304 295 291 286 277 274 274 265 254 243 243 238 237 241 260 241 229 228 205 214 197 211 221 227 233 252 249 264 250 226 215 132 147 131 121
26 20 14 8 4 356 352 347 345 335 323 314 306 298 293 286 282 278 263 249 234 232 237 239 237 244 260 266 239 222 199 203 209 207 237 239 238 261 247 263 228 224 212 219 148 152 156
23 18 14 9 4 359 355 349 349 340 330 320 309 302 295 285 282 273 248 235 226 227 230 219 214 247 259 224 225 212 205 209 206 218 223 246 233 235 239 251 228 206 212 217 209 171 180
22 17 12 7 3 1 358 351 349 345 336 325 312 303 292 283 276 248 214 201 225 215 231 230 225 259 246 234 217 206 207 214 207 216 217 224 222 230 243 225 219 213 225 216 215 187 188
20 16 11 7 2 360 357 354 351 347 339 331 315 299 285 279 264 225 192 207 258 243 214 223 193 218 136 203 177 200 201 210 203 209 219 204 215 215 229 230 239 239 213 225 107 157 197
17 12 7 4 360 357 353 352 350 347 343 333 315 289 268 253 233 212 207 234 341 319 300 244 246 236 256 198 204 210 196 203 212 219 217 234 226 236 230 239 232 252 265 37 106 135 228
15 9 4 359 355 351 349 348 347 345 343 333 315 279 228 229 224 222 232 266 310 315 287 271 222 230 229 221 237 207 200 208 219 226 230 227 234 215 242 247 245 234 249 224 167 164 241
13 5 359 354 351 349 345 344 343 341 341 331 311 252 203 182 213 255 252 315 290 310 279 242 193 224 221 213 233 228 201 213 230 237 230 249 243 269 247 240 259 244 252 256 236 162 208
15 9 3 354 348 344 344 341 340 337 336 327 298 238 197 188 218 218 319 299 301 297 284 125 158 242 209 199 204 207 201 211 239 232 242 251 247 244 250 247 236 252 237 245 234 185 233
16 11 6 1 353 345 343 341 338 336 334 326 292 224 198 210 268 234 311 297 304 240 255 156 140 203 223 214 232 203 206 215 235 248 258 254 267 263 239 224 251 252 234 255 219 220 218
12 7 3 1 358 353 346 342 337 335 333 324 284 221 202 186 227 307 282 278 243 247 69 284 118 183 223 211 235 200 198 225 231 235 246 258 241 252 238 263 238 236 257 244 236 225 236
10 6 3 2 2 3 356 347 339 336 335 326 274 227 209 206 222 300 291 250 259 284 301 36 356 310 259 228 222 241 219 232 223 250 267 246 233 218 218 225 254 209 224 246 249 229 241
11 8 7 7 12 7 358 350 343 341 341 355 58 206 237 221 243 278 271 244 245 327 3 360 326 282 258 248 249 221 226 243 246 218 238 265 266 354 245 200 212 249 261 241 259 274 275
16 14 12 14 14 7 1 356 350 348 350 89 135 224 146 195 208 241 253 263 294 60 7 326 305 299 301 314 343 294 252 286 238 271 232 236 269 272 289 302 267 264 273 274 247 266 264
22 22 20 17 9 3 6 6 5 12 22 72 194 221 175 162 186 234 252 274 330 68 26 336 312 316 319 322 290 278 313 354 340 346 348 298 270 272 202 228 251 243 233 248 269 260 258
27 27 25 20 14 6 8 11 20 28 52 37 280 290 119 169 221 238 250 357 344 338 337 316 299 287 299 317 318 317 96 190 312 319 325 350 301 265 265 220 316 302 308 298 295 263 265
27 26 26 26 24 20 16 17 23 15 350 305 268 95 164 193 264 302 348 285 51 322 344 331 312 317 335 307 302 304 116 144 61 17 31 10 297 272 268 279 256 260 288 336 320 265 269
25 26 26 27 28 29 25 23 25 20 17 340 291 175 145 201 267 321 326 319 359 127 315 317 313 306 305 301 299 285 274 127 111 91 95 239 277 286 273 0 353 319 307 326 314 306 290
27 28 28 29 29 30 34 30 33 30 31 359 317 50 358 5 12 335 1 342 325 336 12 316 309 354 337 317 310 302 358 343 128 118 99 19 270 276 282 291 296 294 291 299 263 275 297
30 33 32 31 30 32 33 35 40 35 44 35 20 359 344 63 337 315 24 20 344 341 345 324 340 333 318 300 337 319 347 334 326 325 350 330 298 312 287 291 238 265 257 284 271 276 161
34 34 34 35 34 34 36 37 40 50 46 39 18 357 302 55 349 4 25 342 329 339 308 316 337 326 305 5 339 310 299 295 282 288 291 298 282 321 287 296 309 263 303 303 12 35 336
34 32 32 34 35 36 37 38 44 47 44 31 12 355 332 47 49 18 354 343 330 326 303 331 0 335 347 323 308 283 260 261 254 256 253 286 279 244 264 274 255 61 48 66 79 59 78
30 29 28 30 31 33 35 38 42 50 45 32 24 13 353 48 18 2 331 5 323 325 239 298 342 349 319 306 283 257 252 226 23 339 352 294 268 275 263 264 223 113 113 145 171 82 88
26 25 24 25 24 26 28 32 37 46 47 35 30 33 34 13 21 353 355 1 341 346 325 355 334 347 312 301 294 334 326 333 196 356 356 330 332 339 298 256 262 41 9 359 123 114 122
21 21 19 20 22 23 23 24 29 40 42 37 25 41 48 64 32 23 13 356 346 338 310 16 354 356 327 310 340 313 341 316 313 321 287 247 356 52 334 316 61 344 335 316 240 129 106
12 10 8 7 13 17 16 15 17 34 40 34 21 31 21 81 52 27 18 7 3 1 339 351 345 356 340 348 348 339 351 357 353 34 355 21 2 37 1 63 99 332 3 33 88 92 108
4 3 358 354 353 357 2 10 14 23 36 37 16 3 343 75 63 49 33 19 12 5 347 330 352 4 358 342 346 342 356 4 12 48 12 43 35 53 69 126 186 67 95 114 99 108 104